Wind_Speed
12 11 10 9 8 8 7 5 5 5 4 3 2 2 3 3 3 3 3 4 4 4 5 5 5 6 5 5 4 4 4 4 4 3 3 3 3 3 3 4 5 5 4 4
13 13 12 11 10 8 7 6 6 7 6 4 4 3 3 3 2 2 2 3 3 3 4 4 4 5 5 5 4 3 4 4 3 3 3 3 4 4 4 5 6 6 6 6
13 13 13 11 10 9 8 8 8 8 7 6 4 4 4 3 3 3 3 3 3 3 4 4 4 5 5 5 4 3 3 4 4 4 4 4 4 5 5 6 6 6 6 6
15 14 13 12 11 10 9 10 9 9 7 7 6 4 5 4 4 4 4 4 4 5 5 5 5 5 5 5 4 4 3 4 4 4 4 5 5 5 5 5 5 5 5 6
15 15 13 12 11 10 10 10 10 9 8 8 7 6 6 6 6 5 5 6 6 6 6 6 6 6 6 6 6 5 5 5 5 5 6 6 5 5 5 6 6 6 6 6
17 16 15 14 13 12 11 10 10 9 9 9 9 8 8 7 7 7 7 7 7 7 7 7 7 7 7 7 7 6 6 5 5 6 6 6 7 6 6 7 7 7 7 8
17 16 16 15 14 13 12 10 10 11 11 11 12 10 11 9 8 8 8 8 8 7 8 8 8 8 8 8 8 7 7 7 7 7 7 8 8 8 8 8 9 9 9 9
17 16 17 16 15 14 13 12 12 11 11 12 14 13 12 10 10 9 9 9 9 9 9 9 9 9 9 9 9 8 8 8 9 9 9 9 10 10 10 10 10 10 11 11
18 18 18 16 16 15 14 14 13 12 12 12 14 14 13 12 11 11 11 10 10 10 10 10 10 10 10 10 10 10 10 10 10 10 11 11 11 11 11 12 11 11 12 12
20 20 19 18 17 16 16 15 14 13 13 13 13 14 13 13 12 11 11 11 11 11 11 11 12 12 12 11 12 11 11 11 12 13 13 12 13 13 13 13 12 12 13 13
21 20 20 19 18 17 17 17 16 14 14 13 13 14 15 14 14 13 12 13 13 12 12 12 13 13 13 13 12 12 13 14 14 14 14 14 14 14 14 14 14 14 14 14
22 21 21 20 20 20 18 17 16 16 16 16 14 15 15 15 14 14 14 14 14 14 13 13 13 13 13 13 13 13 14 15 16 15 15 15 15 15 15 15 15 15 15 15
23 23 21 20 20 21 20 19 18 17 17 17 15 16 16 16 15 14 15 15 15 15 14 15 14 14 14 14 15 15 15 16 16 16 17 17 16 16 16 17 17 17 17 17
24 24 22 20 19 20 20 20 19 18 18 18 18 17 17 17 15 15 15 16 16 16 16 16 16 16 16 16 16 16 16 17 17 17 17 18 18 17 17 17 17 18 18 18
25 24 24 24 24 23 22 21 21 21 20 20 19 19 18 18 18 17 17 17 17 17 17 17 17 17 17 18 18 18 18 19 19 19 19 19 19 19 19 19 19 20 19 20
26 26 25 25 25 25 24 24 24 23 22 22 22 21 20 20 20 20 18 18 18 18 18 19 19 19 19 20 20 20 20 20 20 20 21 21 21 21 21 20 20 20 20 21
26 25 25 24 25 25 26 25 25 25 24 23 24 24 23 22 22 21 21 20 20 20 20 21 22 22 21 21 22 22 22 21 21 22 23 22 22 22 22 22 22 22 22 22
27 26 25 25 25 26 25 26 26 26 26 26 26 26 25 25 25 24 23 23 22 22 21 22 22 22 23 23 24 24 24 23 23 24 24 23 23 23 23 23 24 24 24 24
28 27 27 26 25 25 26 26 26 26 26 26 27 27 27 26 26 26 25 24 24 24 23 24 24 24 25 25 26 26 26 25 25 25 25 25 26 26 26 25 25 25 25 25
28 28 28 28 26 25 26 25 25 25 27 26 27 27 27 27 27 27 26 26 25 25 25 25 26 26 27 28 28 28 28 27 27 27 27 27 28 28 28 27 27 27 26 26
28 28 28 28 27 27 27 26 25 26 27 27 27 27 27 28 28 28 28 27 27 27 27 27 28 28 29 30 30 30 30 30 29 29 29 29 30 29 29 28 28 28 28 28
28 29 29 29 28 29 28 27 27 27 27 28 27 28 28 28 28 29 29 28 28 28 28 28 28 29 30 31 32 32 31 31 31 31 31 30 30 30 29 29 29 29 29 28
29 29 29 29 29 29 29 28 28 28 28 28 29 29 28 28 28 29 29 29 29 29 29 29 29 30 31 31 32 32 32 32 31 32 32 31 30 30 30 29 29 29 29 29
29 29 29 29 28 29 29 29 28 29 29 28 28 29 29 29 28 28 29 30 30 30 30 30 31 31 31 31 32 32 32 32 32 32 32 32 31 31 31 30 29 29 30 29
30 30 29 29 29 29 29 29 29 29 29 29 29 30 30 30 29 29 29 30 30 30 31 30 31 31 31 31 31 32 32 32 32 32 32 32 32 32 32 31 31 30 30 29
31 30 30 30 30 30 29 30 29 29 29 29 29 30 30 30 30 30 30 30 31 31 31 31 31 32 32 32 32 32 32 32 32 33 33 33 33 33 32 31 31 31 30 30
Wind_Direction
208 211 213 218 220 220 223 223 247 261 265 281 297 317 327 329 343 0 13 20 28 35 41 41 40 36 35 35 39 47 44 40 38 40 33 23 9 360 352 340 337 336 332 330
210 216 215 220 221 221 225 231 252 263 262 270 277 299 310 317 318 334 337 347 3 10 17 17 15 14 13 12 16 35 27 15 11 12 5 359 353 344 338 334 334 330 325 326
210 216 215 217 222 226 234 242 249 257 263 269 274 292 289 292 288 294 301 305 313 325 334 347 348 346 347 350 354 2 352 352 354 352 351 350 342 335 330 331 331 328 327 329
213 218 217 218 226 227 241 247 251 256 262 269 267 270 277 276 277 278 281 287 292 296 302 315 325 330 329 329 327 336 331 333 336 339 341 339 335 330 326 326 325 329 334 331
220 221 220 224 230 231 238 248 254 257 261 265 268 263 265 273 271 266 268 277 284 287 290 297 308 312 316 320 321 322 320 318 320 318 320 323 322 321 327 331 327 324 326 324
221 224 225 229 233 237 244 252 259 264 265 264 262 261 259 267 270 263 264 271 276 280 284 292 301 305 304 313 316 316 315 310 308 311 312 311 310 311 316 318 322 321 316 314
226 230 231 232 234 238 245 249 256 262 262 263 266 265 260 266 269 266 267 269 272 277 281 286 294 299 302 308 310 308 307 305 304 304 304 301 300 301 304 305 309 315 315 311
228 234 234 233 234 240 244 243 247 254 258 266 271 268 266 268 269 269 267 269 270 276 280 282 287 292 297 303 304 303 299 299 299 299 299 297 297 297 299 302 304 308 313 313
228 233 236 236 238 238 242 244 246 251 257 260 264 267 270 271 270 270 267 267 271 274 277 280 283 288 292 295 296 297 297 296 297 296 296 296 296 295 296 298 299 304 308 310
228 233 237 238 238 238 242 247 249 247 256 259 267 271 273 271 268 267 263 261 266 273 276 279 281 285 288 291 294 293 296 295 295 294 295 295 294 293 295 298 298 302 305 308
228 232 237 239 238 241 245 247 250 252 253 255 263 269 272 273 267 263 260 261 264 269 273 277 279 281 283 288 291 292 293 294 293 293 294 294 292 291 294 298 297 299 300 302
229 231 236 239 242 242 245 248 251 253 257 258 260 266 272 271 268 264 262 262 264 266 270 275 276 278 279 283 287 291 293 294 294 292 291 292 294 292 291 295 297 297 296 298
230 231 236 243 246 245 246 249 251 253 258 259 259 266 270 269 267 265 264 262 262 266 272 274 273 273 275 278 282 286 289 292 293 292 290 291 292 294 292 293 294 294 293 296
232 234 233 235 240 247 248 249 250 250 253 257 259 261 267 267 267 266 264 261 261 264 270 272 270 271 274 277 280 283 286 287 289 288 289 292 294 297 297 295 294 295 296 297
235 236 238 238 242 245 248 248 250 251 252 254 257 259 263 265 265 267 266 264 264 266 267 268 268 270 272 276 279 282 282 285 286 285 285 288 290 294 295 295 295 297 298 297
237 239 243 245 247 249 249 249 251 253 254 256 257 258 260 261 262 264 265 264 265 264 265 264 266 268 272 274 277 280 281 283 283 284 285 285 287 290 291 292 295 296 296 297
238 240 243 247 251 253 254 253 252 251 252 255 258 259 260 259 259 261 264 263 264 264 264 263 263 267 270 274 278 279 281 283 283 284 285 285 286 287 289 291 294 294 294 295
239 241 244 247 251 253 255 254 255 255 255 256 259 259 260 260 259 260 261 262 264 266 266 265 266 269 271 274 275 278 280 282 284 284 285 285 284 286 288 289 291 292 293 294
240 241 245 248 253 257 257 257 258 257 256 257 258 259 260 260 259 260 262 263 264 265 266 266 266 269 270 271 274 278 280 282 283 282 283 284 285 285 286 287 287 288 290 293
240 241 245 249 250 254 257 259 260 259 258 257 257 258 258 258 259 261 262 263 265 265 266 267 267 268 270 271 273 276 278 280 282 281 282 283 284 284 286 286 286 287 288 290
241 242 245 249 251 254 256 258 260 260 261 260 258 256 257 258 259 261 263 265 266 267 267 268 269 270 271 272 273 275 277 279 281 282 282 282 283 283 284 284 285 285 286 288
243 245 246 248 251 254 258 259 259 261 262 261 259 258 258 261 260 262 264 265 266 268 269 269 270 272 273 274 275 275 276 278 280 281 282 282 282 282 282 282 284 284 285 287
242 244 246 248 252 256 258 260 261 262 261 261 261 260 259 260 261 263 264 265 266 268 269 271 273 274 275 275 276 276 277 278 279 280 281 281 281 282 282 283 284 285 287 286
243 243 246 250 254 256 258 259 260 261 260 260 260 262 262 261 259 262 264 265 266 268 269 270 273 274 275 277 277 277 277 277 277 277 278 280 281 282 283 283 283 284 286 285
245 246 248 251 254 256 258 258 259 260 261 260 260 262 264 263 261 262 264 266 267 268 268 269 271 273 275 277 278 277 276 276 276 278 279 280 280 280 282 282 282 283 285 284
245 247 249 250 253 256 258 260 262 262 263 262 263 264 265 266 265 264 265 266 267 268 269 270 270 272 275 277 277 277 276 276 277 278 279 279 278 279 280 279 280 282 284 285
Height
5915 5918 5920 5921 5921 5923 5923 5924 5925 5924 5923 5923 5923 5922 5922 5920 5919 5918 5917 5916 5915 5914 5913 5912 5911 5910 5909 5907 5906 5905 5904 5903 5902 5901 5900 5900 5899 5899 5898 5897 5896 5895 5894 5893
5914 5916 5917 5918 5919 5920 5921 5923 5923 5923 5922 5922 5922 5922 5921 5920 5919 5918 5918 5917 5916 5915 5914 5913 5912 5910 5909 5908 5907 5906 5905 5904 5903 5902 5901 5900 5899 5898 5897 5897 5896 5894 5893 5893
5912 5914 5914 5916 5917 5919 5920 5921 5921 5921 5921 5921 5921 5922 5921 5920 5919 5918 5917 5917 5916 5915 5914 5913 5912 5911 5909 5908 5907 5906 5905 5904 5903 5902 5901 5900 5899 5898 5897 5896 5895 5893 5892 5892
5908 5910 5912 5914 5915 5917 5918 5918 5919 5919 5920 5920 5921 5921 5920 5919 5918 5918 5917 5916 5915 5915 5914 5913 5912 5911 5909 5908 5907 5905 5904 5904 5903 5902 5901 5900 5898 5897 5896 5895 5894 5893 5892 5891
5906 5908 5909 5911 5913 5914 5915 5916 5916 5917 5917 5918 5919 5919 5920 5917 5917 5916 5916 5915 5914 5914 5913 5912 5911 5910 5909 5907 5906 5905 5904 5903 5902 5901 5900 5899 5898 5897 5896 5895 5893 5892 5891 5890
5903 5905 5906 5908 5910 5911 5912 5913 5914 5915 5916 5917 5917 5917 5918 5916 5915 5915 5914 5914 5913 5912 5912 5911 5910 5909 5908 5907 5906 5904 5903 5902 5901 5900 5899 5898 5897 5896 5895 5894 5893 5891 5890 5888
5900 5902 5903 5905 5907 5908 5910 5912 5914 5914 5915 5916 5914 5914 5915 5913 5912 5912 5912 5912 5911 5911 5910 5909 5908 5908 5907 5905 5904 5903 5902 5901 5900 5899 5898 5897 5896 5894 5893 5892 5891 5889 5888 5887
5898 5900 5900 5902 5904 5905 5907 5910 5912 5913 5914 5914 5911 5910 5911 5910 5909 5909 5909 5909 5909 5909 5908 5907 5907 5906 5905 5904 5903 5902 5901 5900 5898 5897 5896 5895 5894 5892 5891 5890 5889 5887 5886 5884
5895 5897 5897 5898 5900 5902 5903 5905 5907 5909 5909 5910 5909 5907 5907 5906 5906 5906 5906 5906 5906 5906 5905 5905 5904 5904 5903 5902 5901 5900 5899 5898 5896 5895 5894 5892 5891 5890 5888 5887 5886 5885 5883 5882
5889 5892 5893 5894 5896 5898 5900 5901 5903 5904 5905 5906 5906 5905 5904 5903 5903 5903 5903 5903 5903 5903 5903 5902 5902 5901 5900 5899 5898 5897 5896 5895 5894 5892 5891 5890 5888 5887 5886 5885 5883 5882 5880 5879
5884 5887 5889 5890 5892 5894 5896 5897 5898 5899 5901 5902 5903 5905 5900 5899 5899 5899 5899 5900 5900 5899 5899 5899 5898 5898 5897 5896 5895 5894 5893 5892 5891 5889 5888 5886 5884 5883 5882 5882 5880 5879 5877 5876
5879 5882 5884 5886 5888 5889 5890 5892 5894 5896 5896 5896 5898 5901 5896 5895 5895 5895 5895 5896 5896 5896 5896 5895 5895 5894 5894 5893 5892 5891 5890 5889 5887 5886 5884 5883 5881 5880 5879 5878 5876 5875 5873 5872
5874 5877 5880 5882 5885 5884 5885 5887 5889 5890 5891 5892 5894 5897 5892 5891 5891 5891 5892 5892 5892 5892 5892 5891 5891 5890 5890 5889 5888 5887 5886 5885 5883 5882 5880 5879 5877 5876 5875 5874 5872 5871 5869 5868
5868 5871 5875 5879 5880 5879 5880 5882 5883 5885 5887 5887 5888 5889 5888 5887 5887 5887 5887 5887 5887 5887 5887 5887 5887 5886 5886 5885 5884 5883 5882 5881 5880 5878 5877 5875 5874 5872 5871 5869 5868 5866 5864 5863
5862 5865 5867 5870 5871 5873 5874 5876 5877 5879 5880 5882 5883 5883 5883 5883 5882 5883 5883 5883 5883 5883 5882 5882 5882 5882 5881 5880 5880 5879 5877 5876 5875 5874 5873 5871 5870 5868 5866 5865 5863 5861 5860 5858
5856 5858 5861 5863 5865 5866 5868 5869 5871 5872 5874 5875 5876 5877 5877 5877 5877 5877 5878 5878 5878 5878 5877 5877 5877 5876 5876 5875 5874 5874 5872 5871 5870 5869 5867 5866 5865 5863 5861 5860 5858 5856 5854 5852
5849 5852 5855 5858 5859 5859 5861 5863 5864 5865 5867 5868 5869 5871 5870 5871 5871 5871 5872 5872 5872 5872 5872 5871 5871 5870 5870 5870 5869 5868 5867 5866 5864 5863 5862 5861 5859 5858 5856 5854 5853 5851 5849 5847
5843 5846 5848 5851 5852 5854 5857 5856 5857 5859 5860 5861 5862 5863 5863 5864 5864 5865 5865 5866 5866 5866 5865 5865 5865 5865 5864 5863 5863 5862 5861 5860 5859 5857 5856 5855 5853 5852 5850 5848 5847 5845 5843 5841
5836 5839 5842 5844 5846 5847 5848 5849 5850 5852 5852 5854 5854 5855 5855 5856 5856 5857 5858 5859 5859 5859 5859 5858 5858 5858 5857 5857 5856 5855 5854 5853 5852 5851 5850 5848 5847 5845 5844 5842 5840 5838 5836 5834
5830 5832 5835 5837 5839 5841 5841 5842 5842 5845 5845 5846 5846 5847 5848 5848 5850 5850 5851 5851 5851 5852 5852 5851 5851 5851 5851 5850 5849 5848 5847 5846 5845 5844 5842 5841 5840 5838 5837 5835 5833 5831 5829 5827
5823 5825 5827 5829 5831 5832 5833 5834 5836 5838 5838 5838 5838 5839 5840 5841 5842 5843 5843 5843 5844 5844 5844 5844 5843 5843 5843 5842 5841 5840 5839 5838 5837 5836 5834 5833 5832 5830 5828 5827 5825 5823 5821 5820
5815 5818 5819 5821 5823 5826 5825 5826 5828 5828 5829 5829 5830 5831 5832 5832 5833 5834 5835 5835 5835 5835 5835 5835 5835 5834 5834 5833 5832 5831 5830 5829 5828 5827 5826 5825 5823 5822 5820 5818 5817 5815 5813 5811
5807 5810 5811 5814 5816 5816 5817 5818 5818 5819 5820 5821 5821 5822 5823 5824 5824 5825 5826 5826 5827 5827 5826 5826 5826 5825 5825 5824 5823 5821 5820 5820 5819 5818 5817 5815 5814 5813 5811 5810 5808 5806 5804 5803
5798 5801 5803 5805 5806 5807 5808 5809 5810 5810 5811 5812 5813 5814 5814 5815 5815 5816 5817 5817 5817 5817 5817 5817 5817 5816 5815 5814 5813 5812 5811 5810 5810 5809 5807 5806 5805 5804 5802 5801 5799 5798 5796 5794
5790 5792 5794 5796 5797 5798 5799 5800 5801 5802 5803 5803 5804 5805 5805 5805 5805 5806 5807 5808 5808 5808 5808 5807 5807 5806 5806 5805 5803 5802 5802 5801 5800 5799 5798 5797 5795 5794 5793 5791 5790 5789 5787 5786
5782 5784 5786 5788 5789 5790 5791 5792 5792 5793 5794 5795 5795 5796 5796 5796 5796 5797 5797 5798 5798 5798 5798 5798 5797 5797 5796 5795 5794 5793 5792 5791 5790 5789 5788 5787 5786 5784 5783 5782 5781 5779 5778 5777